AirNav   ATP
 
 1091 users online  

NJ77 Warren County Public Safety Department Heliport
Franklin, New Jersey, USA


FAA INFORMATION EFFECTIVE 14 SEPTEMBER 2017

Location

FAA Identifier: NJ77
Lat/Long: 40-44-27.5000N / 075-01-17.4000W
40-44.458333N / 075-01.290000W
40.7409722 / -75.0215000
(estimated)
Elevation: 411 ft. / 125 m (estimated)
From city: 2 miles W of FRANKLIN, NJ
Time zone: UTC -4 (UTC -5 during Standard Time)
Zip code: 07882

Heliport Operations

Heliport use: Private use. Permission required prior to landing
Activation date: 10/2008
Control tower: no
ARTCC: NEW YORK CENTER
FSS: MILLVILLE FLIGHT SERVICE STATION
Attendance: CONTINUOUS
Wind indicator: yes
Segmented circle: no

Heliport Communications

WX ASOS at SMQ (17 nm SE): 120.6 (908-722-2139)
WX ASOS at ABE (20 nm W): PHONE 610-266-3579

Nearby radio navigation aids

VOR radial/distance  VOR name  Freq  Var
BWZr260/9.7BROADWAY VOR/DME114.2011W
SBJr317/15.9SOLBERG VOR/DME112.9010W
STWr215/16.8STILLWATER VOR/DME109.6011W
FJCr098/19.7ALLENTOWN VORTAC117.5010W
SAXr239/29.4SPARTA VORTAC115.7011W
ARDr360/29.7YARDLEY VOR/DME108.2010W
ETXr081/31.6EAST TEXAS VOR/DME110.2009W
PNEr009/(39.5)NORTH PHILADELPHIA VOR112.0010W
PTWr047/39.7POTTSTOWN VORTAC116.5009W

 
NDB name  Hdg/Dist  Freq  Var  ID
CHATHAM283/26.925413WCAT -.-. .- -
AMBLER030/38.827512WING .. -. --.

Heliport Services

Runway Information

Helipad H1

Dimensions: 100 x 100 ft. / 30 x 30 m
Surface: turf
Traffic pattern: leftleft

Heliport Ownership and Management from official FAA records

Ownership: Privately-owned
Owner: WARREN COUNTY
1024 ROUTE 57
WASHINGTON, NJ 07882
Phone 908-835-2051
Manager: FRANK WHEATLEY
1024 ROUTE 57
WASHINGTON, NJ 07882
Phone 908-835-2051

Additional Remarks

A52-H1 H1 HAS 30 FT TREES 50 FT S AND 185 FT TWR 400 SSE OF PAD.

Instrument Procedures

There are no published instrument procedures at NJ77.

Some nearby airports with instrument procedures:

N85 - Alexandria Airport (9 nm S)
N43 - Braden Airpark (10 nm W)
N40 - Sky Manor Airport (11 nm S)
1N7 - Blairstown Airport (14 nm N)
N51 - Solberg-Hunterdon Airport (16 nm SE)
KSMQ - Somerset Airport (17 nm SE)
N53 - Stroudsburg-Pocono Airport (19 nm N)
KABE - Lehigh Valley International Airport (20 nm W)
 
Loc | Ops | Rwys | IFR | FBO | Links
Com | Nav | Svcs | Stats | Notes


 
Aerial photo
No photo
 
Sectional chart

 
Airport distance calculator
Flying to Warren County Public Safety Department Heliport? Find the distance to fly.

From to NJ77

Sunrise and sunset
Times for 20-Sep-2017
 Local
(UTC-4)
 Zulu
(UTC)
Morning civil twilight06:1910:19
Sunrise06:4710:47
Sunset19:0123:01
Evening civil twilight19:2823:28

Current date and time
Zulu (UTC)  20-Sep-2017 13:04:48
Local (UTC-4)  20-Sep-2017 09:04:48
 
METAR
KSMQ 
18nm SE 
ASOS 120.60 908-722-2139
061301Z AUTO 35008G15KT 7SM SCT012 OVC025 18/16 A2987 RMK AO2 PRESRR T01780161
KABE 
20nm W 
201251Z 34007KT 10SM CLR 22/16 A2994 RMK AO2 SLP137 T02170161
K12N 
21nm NE 
201254Z AUTO VRB04KT 21/17 A2994 RMK AO1 SLP134 T02060167
KXLL 
24nm SW 
201255Z AUTO 36004KT 10SM CLR 21/17 A2996 RMK AO2
KCKZ 
24nm SW 
201255Z AUTO 35005KT 10SM SCT050 19/18 A2995 RMK AO2 P0001
KUKT 
25nm SW 
201255Z AUTO 01007KT 10SM CLR 21/17 A2995 RMK AO1
KDYL 
25nm S 
201254Z AUTO 35007KT 10SM OVC055 21/17 A2992 RMK AO2 SLP127 T02060167
KMMU 
28nm E 
201245Z 03010G20KT 10SM SCT028 BKN120 23/18 A2990
KMPO 
29nm NW 
201253Z AUTO 35008KT 10SM CLR 19/16 A3000 RMK AO2 SLP151 T01890156
KTTN 
29nm S 
ASOS 133.70 609-538-8690
201253Z 34008KT 10SM CLR 22/18 A2989 RMK AO2 SLP115 T02220178
TAF
KABE 
20nm W 
201138Z 2012/2112 33004KT P6SM SCT080 FM201400 34011KT P6SM FEW030 SCT080 FM201900 35009KT P6SM BKN035 FM210100 VRB03KT P6SM SCT080
NOTAMs
Click for the latest NOTAMs
NOTAMs are issued by the DoD/FAA and will open in a separate window not controlled by AirNav.

 

 
 

Would you like to see your business listed on this page?

 If your business provides an interesting product or service to pilots, flight crews, aircraft, or users of the Warren County Public Safety Department Heliport, you should consider listing it here.  To start the listing process, click on the button below
 
Add a business
 

Other Pages about Warren County Public Safety Department Heliport

Update a link
 
Copyright © AirNav, LLC. All rights reserved. Privacy Policy  Contact